GW2702 Weather Reports


Display with metric or nautical units.
time (UTC)temp
F
wind
direction
speed
MPH
gust
MPH
rain 1hr
in
rain 24hr
in
rain mn
in
humidity
%
barometer
mb
20260507003948 62 105 2.0 2.0 0.00 0.00 0.00 71
20260507003443 63 182 0.0 1.0 0.00 0.00 0.00 71
20260507002938 62 98 1.0 3.0 0.00 0.00 0.00 71
20260507002434 64 154 0.0 1.0 0.00 0.00 0.00 69
20260507001931 64 194 0.0 1.0 0.00 0.00 0.00 68
20260507001427 64 122 0.0 1.0 0.00 0.00 0.00 68
20260507000925 64 42 1.0 2.0 0.00 0.00 0.00 69
20260507000420 63 131 1.0 3.0 0.00 0.00 0.00 70
20260506235911 64 57 1.0 2.0 0.00 0.00 0.00 69
20260506235409 64 116 0.0 5.0 0.00 0.00 0.00 70
20260506234904 65 6 1.0 3.0 0.00 0.00 0.00 69
20260506234403 65 48 1.0 5.0 0.00 0.00 0.00 68
20260506233900 63 69 1.0 1.0 0.00 0.00 0.00 69
20260506233355 62 176 0.0 1.0 0.00 0.00 0.00 71
20260506232852 62 42 1.0 2.0 0.00 0.00 0.00 71
20260506232348 64 205 1.0 2.0 0.00 0.00 0.00 71
20260506231845 64 109 1.0 3.0 0.00 0.00 0.00 69
20260506231343 63 46 1.0 3.0 0.00 0.00 0.00 70
20260506230840 64 43 2.0 5.0 0.00 0.00 0.00 68
20260506230336 63 162 0.0 2.0 0.00 0.00 0.00 69
20260506225832 63 157 1.0 2.0 0.00 0.00 0.00 70
20260506225330 64 128 0.0 2.0 0.00 0.00 0.00 68
20260506224826 63 127 1.0 2.0 0.00 0.00 0.00 70
20260506224323 64 23 2.0 3.0 0.00 0.00 0.00 69
20260506223820 63 144 1.0 5.0 0.00 0.00 0.00 70
20260506223315 62 25 2.0 6.0 0.00 0.00 0.00 71
20260506222813 62 44 3.0 7.0 0.00 0.00 0.00 71
20260506222308 62 58 1.0 8.0 0.00 0.00 0.00 71
20260506221806 62 121 3.0 5.0 0.00 0.00 0.00 71
20260506221303 63 4 3.0 3.0 0.00 0.00 0.00 69
20260506220801 62 46 3.0 5.0 0.00 0.00 0.00 72
20260506220255 64 270 0.0 2.0 0.00 0.00 0.00 68
20260506215752 64 175 2.0 3.0 0.00 0.00 0.00 69
20260506215248 63 177 1.0 3.0 0.00 0.00 0.00 69
20260506214744 62 62 0.0 3.0 0.00 0.00 0.00 70
20260506214242 62 168 1.0 1.0 0.00 0.00 0.00 71
20260506213741 62 32 2.0 2.0 0.00 0.00 0.00 70
20260506213237 64 35 2.0 3.0 0.00 0.00 0.00 68
20260506212735 64 27 1.0 5.0 0.00 0.00 0.00 69
20260506212230 64 17 3.0 6.0 0.00 0.00 0.00 68
20260506211725 64 346 3.0 5.0 0.00 0.00 0.00 69
20260506211222 66 56 1.0 3.0 0.00 0.00 0.00 64
20260506210719 65 16 2.0 5.0 0.00 0.00 0.00 68
20260506210216 64 167 1.0 2.0 0.00 0.00 0.00 68
20260506205713 64 151 0.0 3.0 0.00 0.00 0.00 68
20260506205208 65 136 0.0 2.0 0.00 0.00 0.00 66
20260506204706 66 38 2.0 3.0 0.00 0.00 0.00 66
20260506204203 66 167 0.0 6.0 0.00 0.00 0.00 66
20260506203701 64 150 0.0 2.0 0.00 0.00 0.00 66
20260506203157 66 32 3.0 6.0 0.00 0.00 0.00 66
20260506202655 65 130 4.0 5.0 0.00 0.00 0.00 66
20260506202150 64 77 1.0 1.0 0.00 0.00 0.00 66
20260506201648 64 156 1.0 5.0 0.00 0.00 0.00 67
20260506201144 62 138 1.0 5.0 0.00 0.00 0.00 68
20260506200641 64 150 1.0 3.0 0.00 0.00 0.00 68
20260506200138 64 127 1.0 3.0 0.00 0.00 0.00 66
20260506195634 63 181 2.0 3.0 0.00 0.00 0.00 70
20260506195130 66 138 5.0 7.0 0.00 0.00 0.00 67
20260506194629 65 152 2.0 5.0 0.00 0.00 0.00 67
20260506194124 63 159 1.0 2.0 0.00 0.00 0.00 69
20260506193622 63 153 1.0 3.0 0.00 0.00 0.00 70
20260506193119 64 65 3.0 7.0 0.00 0.00 0.00 68
20260506192616 63 18 2.0 3.0 0.00 0.00 0.00 69
20260506192112 62 51 3.0 5.0 0.00 0.00 0.00 71
20260506191609 61 195 1.0 6.0 0.00 0.00 0.00 73
20260506191104 62 32 3.0 6.0 0.00 0.00 0.00 72
20260506190602 61 104 1.0 5.0 0.00 0.00 0.00 74
20260506190059 62 124 1.0 1.0 0.00 0.00 0.00 72
20260506185556 63 157 0.0 2.0 0.00 0.00 0.00 71
20260506185053 62 43 2.0 5.0 0.00 0.00 0.00 71
20260506184550 62 174 1.0 3.0 0.00 0.00 0.00 71
20260506184047 62 351 2.0 5.0 0.00 0.00 0.00 71
20260506183543 61 23 3.0 7.0 0.00 0.00 0.00 73
20260506183040 65 67 1.0 2.0 0.00 0.00 0.00 66
20260506182537 64 172 0.0 2.0 0.00 0.00 0.00 67
20260506182034 65 150 3.0 6.0 0.00 0.00 0.00 67
20260506181532 64 90 2.0 3.0 0.00 0.00 0.00 67
20260506181029 65 131 0.0 5.0 0.00 0.00 0.00 67
20260506180525 66 117 0.0 2.0 0.00 0.00 0.00 66
20260506180022 65 163 0.0 1.0 0.00 0.00 0.00 65
20260506175519 64 52 0.0 1.0 0.00 0.00 0.00 67
20260506175015 64 156 0.0 1.0 0.00 0.00 0.00 68
20260506174514 62 18 1.0 2.0 0.00 0.00 0.00 71
20260506174009 64 285 2.0 3.0 0.00 0.00 0.00 70
20260506173507 64 153 2.0 2.0 0.00 0.00 0.00 69
20260506173004 61 176 1.0 3.0 0.00 0.00 0.00 71
20260506172501 62 147 2.0 3.0 0.00 0.00 0.00 72
20260506171957 62 164 0.0 1.0 0.00 0.00 0.00 70
20260506171455 60 174 2.0 3.0 0.00 0.00 0.00 74
20260506170953 60 242 1.0 1.0 0.00 0.00 0.00 74
20260506170449 61 167 1.0 3.0 0.00 0.00 0.00 74
20260506165947 61 168 0.0 1.0 0.00 0.00 0.00 72
20260506165446 60 163 0.0 1.0 0.00 0.00 0.00 74
20260506164941 60 169 0.0 2.0 0.00 0.00 0.00 76
20260506164438 60 213 3.0 3.0 0.00 0.00 0.00 73
20260506163936 59 172 2.0 5.0 0.00 0.00 0.00 76
20260506163431 60 188 0.0 2.0 0.00 0.00 0.00 74
20260506162926 59 181 1.0 2.0 0.00 0.00 0.00 75
20260506162424 59 150 2.0 5.0 0.00 0.00 0.00 77
20260506161921 58 106 0.0 2.0 0.00 0.00 0.00 77
20260506161419 58 156 1.0 2.0 0.00 0.00 0.00 77
20260506160911 57 170 1.0 3.0 0.00 0.00 0.00 79
20260506160408 57 151 1.0 3.0 0.00 0.00 0.00 79
20260506155906 58 189 1.0 5.0 0.00 0.00 0.00 79
20260506155402 57 136 1.0 2.0 0.00 0.00 0.00 79
20260506153525 57 225 2.0 3.0 0.00 0.00 0.00 81
20260506153022 57 159 0.0 1.0 0.00 0.00 0.00 81
20260506152519 56 208 1.0 3.0 0.00 0.00 0.00 81
20260506152018 56 166 0.0 2.0 0.00 0.00 0.00 82
20260506151515 56 164 0.0 1.0 0.00 0.00 0.00 82
20260506151012 55 167 1.0 5.0 0.00 0.00 0.00 83
20260506150507 55 166 2.0 3.0 0.00 0.00 0.00 83
20260506150005 55 205 1.0 2.0 0.00 0.00 0.00 84
20260506145501 55 200 1.0 2.0 0.00 0.00 0.00 85
20260506144959 55 158 1.0 2.0 0.00 0.00 0.00 86
20260506144455 54 183 1.0 2.0 0.00 0.00 0.00 87
20260506143953 54 262 1.0 2.0 0.00 0.00 0.00 87
20260506143450 53 129 0.0 1.0 0.00 0.00 0.00 90
20260506142949 52 179 0.0 1.0 0.00 0.00 0.00 92
20260506142446 51 149 0.0 2.0 0.00 0.00 0.00 94
20260506141944 50 182 0.0 0.0 0.00 0.00 0.00 95
20260506141441 50 168 0.0 0.0 0.00 0.00 0.00 96
20260506140940 50 167 0.0 0.0 0.00 0.00 0.00 96
20260506140436 50 164 0.0 0.0 0.00 0.00 0.00 97
20260506135933 50 161 0.0 0.0 0.00 0.00 0.00 98
20260506135431 49 189 0.0 0.0 0.00 0.00 0.00 98
20260506134926 50 154 0.0 0.0 0.00 0.00 0.00 98
20260506134423 49 167 0.0 0.0 0.00 0.00 0.00 99
20260506133920 49 169 0.0 0.0 0.00 0.00 0.00 99
20260506133417 49 168 0.0 0.0 0.00 0.00 0.00 99
20260506132913 48 143 0.0 0.0 0.00 0.00 0.00 99
20260506132411 48 178 0.0 0.0 0.00 0.00 0.00 99
20260506131908 48 170 0.0 0.0 0.00 0.00 0.00 98
20260506131404 48 190 0.0 0.0 0.00 0.00 0.00 98
20260506130901 48 173 0.0 0.0 0.00 0.00 0.00 98
20260506130358 48 168 0.0 0.0 0.00 0.00 0.00 98
20260506125856 48 186 0.0 0.0 0.00 0.00 0.00 98
20260506125354 48 169 0.0 0.0 0.00 0.00 0.00 97
20260506124852 48 188 0.0 0.0 0.00 0.00 0.00 97
20260506124349 49 178 0.0 0.0 0.00 0.00 0.00 97
20260506123846 49 169 0.0 0.0 0.00 0.00 0.00 97
20260506123345 49 152 0.0 0.0 0.00 0.00 0.00 97
20260506122842 49 169 0.0 0.0 0.00 0.00 0.00 97
20260506122338 49 178 0.0 0.0 0.00 0.00 0.00 97
20260506121837 50 194 0.0 0.0 0.00 0.00 0.00 97
20260506121334 50 170 0.0 0.0 0.00 0.00 0.00 98
20260506120831 49 173 0.0 0.0 0.00 0.00 0.00 98
20260506120328 49 149 0.0 0.0 0.00 0.00 0.00 98
20260506115825 48 165 0.0 0.0 0.00 0.00 0.00 98
20260506115324 48 171 0.0 0.0 0.00 0.00 0.00 97
20260506114821 48 174 0.0 0.0 0.00 0.00 0.00 97
20260506114319 48 172 0.0 0.0 0.00 0.00 0.00 97
20260506113817 49 169 0.0 0.0 0.00 0.00 0.00 97
20260506113314 49 166 0.0 0.0 0.00 0.00 0.00 97
20260506112811 49 169 0.0 0.0 0.00 0.00 0.00 97
20260506112308 49 165 0.0 0.0 0.00 0.00 0.00 97
20260506111805 49 166 0.0 0.0 0.00 0.00 0.00 97
20260506111304 49 159 0.0 0.0 0.00 0.00 0.00 97
20260506110801 49 166 0.0 0.0 0.00 0.00 0.00 97
20260506110258 49 162 0.0 0.0 0.00 0.00 0.00 97
20260506105754 49 169 0.0 0.0 0.00 0.00 0.00 97
20260506105251 49 160 0.0 0.0 0.00 0.00 0.00 97
20260506104749 49 137 0.0 0.0 0.00 0.00 0.00 97
20260506104247 49 189 0.0 0.0 0.00 0.00 0.00 97
20260506103744 50 171 0.0 0.0 0.00 0.00 0.00 97
20260506103241 50 178 0.0 0.0 0.00 0.00 0.00 97
20260506102738 50 170 0.0 0.0 0.00 0.00 0.00 97
20260506102236 50 171 0.0 0.0 0.00 0.00 0.00 97
20260506101733 50 175 0.0 0.0 0.00 0.00 0.00 97
20260506101229 50 170 0.0 0.0 0.00 0.00 0.00 97
20260506100727 50 183 0.0 0.0 0.00 0.00 0.00 96
20260506100226 50 172 0.0 0.0 0.00 0.00 0.00 97
20260506095724 50 172 0.0 0.0 0.00 0.00 0.00 96
20260506095220 50 171 0.0 0.0 0.00 0.00 0.00 96
20260506094717 50 172 0.0 0.0 0.00 0.00 0.00 96
20260506094215 50 172 0.0 0.0 0.00 0.00 0.00 96
20260506093714 50 169 0.0 0.0 0.00 0.00 0.00 96
20260506093210 50 173 0.0 0.0 0.00 0.00 0.00 96
20260506092708 50 174 0.0 0.0 0.00 0.00 0.00 95
20260506092205 51 170 0.0 0.0 0.00 0.00 0.00 95
20260506091703 51 171 0.0 0.0 0.00 0.00 0.00 95
20260506091200 51 170 0.0 0.0 0.00 0.00 0.00 95
20260506090658 51 171 0.0 0.0 0.00 0.00 0.00 95
20260506090154 51 171 0.0 0.0 0.00 0.00 0.00 95
20260506085651 51 169 0.0 0.0 0.00 0.00 0.00 95
20260506085147 51 179 0.0 0.0 0.00 0.00 0.00 95
20260506084644 51 172 0.0 0.0 0.00 0.00 0.00 94
20260506084141 51 172 0.0 0.0 0.00 0.00 0.00 94
20260506083638 51 177 0.0 0.0 0.00 0.00 0.00 94
20260506083136 51 167 0.0 0.0 0.00 0.00 0.00 94
20260506082632 52 177 0.0 0.0 0.00 0.00 0.00 93
20260506082128 52 199 0.0 0.0 0.00 0.00 0.00 92
20260506081626 52 171 0.0 0.0 0.00 0.00 0.00 91
20260506081123 53 175 0.0 0.0 0.00 0.00 0.00 90
20260506080621 53 169 0.0 0.0 0.00 0.00 0.00 90
20260506080117 53 164 0.0 0.0 0.00 0.00 0.00 90
20260506073101 54 152 0.0 0.0 0.00 0.00 0.00 90
20260506072558 53 167 0.0 0.0 0.00 0.00 0.00 91
20260506072056 53 159 0.0 0.0 0.00 0.00 0.00 90
20260506071553 54 168 0.0 0.0 0.00 0.00 0.00 90
20260506071051 53 172 0.0 0.0 0.00 0.00 0.00 90
20260506070548 53 168 0.0 0.0 0.00 0.00 0.00 89
20260506062022 55 177 0.0 0.0 0.00 0.00 0.00 85
20260506061517 55 171 0.0 0.0 0.00 0.00 0.00 85
20260506061015 55 175 0.0 0.0 0.00 0.00 0.00 84
20260506060514 56 177 0.0 0.0 0.00 0.00 0.00 82
20260506050942 59 153 0.0 0.0 0.00 0.00 0.00 72
20260506050440 59 132 0.0 0.0 0.00 0.00 0.00 71
20260506044930 60 134 0.0 1.0 0.00 0.00 0.00 70
20260506044429 60 159 1.0 2.0 0.00 0.00 0.00 69
20260506043925 60 176 1.0 2.0 0.00 0.00 0.00 70
20260506043423 61 137 1.0 5.0 0.00 0.00 0.00 69
20260506042920 61 197 2.0 3.0 0.00 0.00 0.00 69
20260506042420 61 170 0.0 1.0 0.00 0.00 0.00 69
20260506041917 61 162 0.0 0.0 0.00 0.00 0.00 69
20260506041415 62 172 1.0 5.0 0.00 0.00 0.00 69
20260506040912 62 154 1.0 1.0 0.00 0.00 0.00 69
20260506040409 62 155 1.0 2.0 0.00 0.00 0.00 69
20260506035905 62 162 0.0 1.0 0.00 0.00 0.00 69
20260506035403 62 159 1.0 3.0 0.00 0.00 0.00 68
20260506034859 63 169 0.0 1.0 0.00 0.00 0.00 68
20260506034357 63 168 0.0 2.0 0.00 0.00 0.00 68
20260506033854 63 167 1.0 2.0 0.00 0.00 0.00 67
20260506033351 64 99 1.0 3.0 0.00 0.00 0.00 67
20260506032848 64 200 2.0 2.0 0.00 0.00 0.00 66
20260506032344 65 151 0.0 3.0 0.00 0.00 0.00 65
20260506031841 65 166 1.0 3.0 0.00 0.00 0.00 64
20260506031339 66 175 1.0 5.0 0.00 0.00 0.00 64
20260506030836 66 163 1.0 3.0 0.00 0.00 0.00 64
20260506030334 66 177 0.0 5.0 0.00 0.00 0.00 63
20260506025830 66 156 1.0 7.0 0.00 0.00 0.00 63
20260506025327 67 154 1.0 3.0 0.00 0.00 0.00 62
20260506024824 67 119 3.0 3.0 0.00 0.00 0.00 62
20260506024321 68 178 3.0 7.0 0.00 0.00 0.00 62
20260506023817 68 174 2.0 5.0 0.00 0.00 0.00 61
20260506023314 68 190 3.0 5.0 0.00 0.00 0.00 62
20260506022810 68 169 1.0 5.0 0.00 0.00 0.00 62
20260506022309 68 201 3.0 5.0 0.00 0.00 0.00 61
20260506021806 69 161 2.0 3.0 0.00 0.00 0.00 61
20260506021303 69 203 4.0 5.0 0.00 0.00 0.00 60
20260506020759 69 185 0.0 3.0 0.00 0.00 0.00 60
20260506020258 69 144 1.0 7.0 0.00 0.00 0.00 60
20260506015755 69 152 2.0 6.0 0.00 0.00 0.00 59
20260506015252 70 204 3.0 6.0 0.00 0.00 0.00 59
20260506014749 70 189 5.0 6.0 0.00 0.00 0.00 58
20260506014246 70 226 3.0 3.0 0.00 0.00 0.00 58
20260506013743 70 233 2.0 3.0 0.00 0.00 0.00 58
20260506013240 70 182 2.0 7.0 0.00 0.00 0.00 58
20260506012737 70 117 1.0 6.0 0.00 0.00 0.00 58
20260506012234 71 171 1.0 9.0 0.00 0.00 0.00 57
20260506011731 71 189 4.0 8.0 0.00 0.00 0.00 57
20260506011226 72 183 3.0 5.0 0.00 0.00 0.00 54
20260506010725 71 181 2.0 7.0 0.00 0.00 0.00 56
20260506010222 73 146 4.0 6.0 0.00 0.00 0.00 54
20260506005719 73 204 1.0 7.0 0.00 0.00 0.00 54
20260506005216 74 177 5.0 7.0 0.00 0.00 0.00 53
20260506004712 74 193 1.0 5.0 0.00 0.00 0.00 52
20260506004210 74 168 1.0 2.0 0.00 0.00 0.00 52